CW9687 Weather Reports


time (UTC)temp
F
wind
direction
speed
knots
gust
knots
rain 1hr
in
rain 24hr
in
rain mn
in
humidity
%
barometer
mb
20260503225031 66 285 5.2 14.8 0.00 0.00 0.00 56 1013.7
20260503224632 66 316 7.0 14.8 0.00 0.00 0.00 55 1013.6
20260503224030 66 316 5.2 14.8 0.00 0.00 0.00 55 1013.5
20260503223530 66 321 6.1 14.8 0.00 0.00 0.00 54 1013.6
20260503223029 66 318 4.3 13.0 0.00 0.00 0.00 55 1013.6
20260503222529 66 303 7.0 13.9 0.00 0.00 0.00 55 1013.7
20260503222027 67 305 5.2 13.9 0.00 0.00 0.00 54 1013.6
20260503221526 67 273 5.2 13.0 0.00 0.00 0.00 56 1013.8
20260503221026 66 15 1.7 14.8 0.00 0.00 0.00 55 1013.8
20260503220526 66 299 6.1 14.8 0.00 0.00 0.00 56 1013.9
20260503220018 66 290 5.2 11.3 0.00 0.00 0.00 55 1013.9
20260503215518 66 328 2.6 11.3 0.00 0.00 0.00 57 1014.0
20260503215016 66 320 5.2 13.0 0.00 0.00 0.00 57 1013.9
20260503214618 66 289 6.1 14.8 0.00 0.00 0.00 58 1014.0
20260503214021 65 307 7.0 14.8 0.00 0.00 0.00 57 1014.0
20260503213515 66 304 6.1 12.2 0.00 0.00 0.00 58 1014.0
20260503213015 66 298 6.1 12.2 0.00 0.00 0.00 59 1014.0
20260503212515 66 299 5.2 11.3 0.00 0.00 0.00 59 1014.0
20260503212013 66 329 5.2 14.8 0.00 0.00 0.00 60 1013.8
20260503211514 66 338 2.6 13.9 0.00 0.00 0.00 59 1013.9
20260503211013 66 266 5.2 13.9 0.00 0.00 0.00 58 1014.0
20260503210519 66 329 7.8 12.2 0.00 0.00 0.00 58 1014.0
20260503210006 66 321 8.7 13.0 0.00 0.00 0.00 58 1013.9
20260503205506 66 318 7.0 13.0 0.00 0.00 0.00 57 1014.0
20260503205006 66 269 6.1 13.0 0.00 0.00 0.00 58 1014.1
20260503204505 66 283 7.0 12.2 0.00 0.00 0.00 58 1014.2
20260503204005 66 304 6.1 13.0 0.00 0.00 0.00 60 1014.2
20260503203508 66 323 6.1 13.0 0.00 0.00 0.00 60 1014.3
20260503203004 66 305 7.0 12.2 0.00 0.00 0.00 59 1014.3
20260503202505 66 354 5.2 13.9 0.00 0.00 0.00 60 1014.2
20260503202004 65 268 4.3 16.5 0.00 0.00 0.00 62 1014.2
20260503201504 65 314 8.7 16.5 0.00 0.00 0.00 60 1014.3
20260503201007 66 341 7.8 14.8 0.00 0.00 0.00 60 1014.2
20260503200504 65 331 3.5 11.3 0.00 0.00 0.00 61 1014.3
20260503200100 65 292 6.1 12.2 0.00 0.00 0.00 61 1014.2
20260503195555 65 307 5.2 14.8 0.00 0.00 0.00 61 1014.3
20260503195057 65 316 4.3 14.8 0.00 0.00 0.00 61 1014.3
20260503194555 65 312 5.2 15.6 0.00 0.00 0.00 60 1014.4
20260503194055 65 300 6.1 13.9 0.00 0.00 0.00 59 1014.3
20260503193555 65 323 6.1 10.4 0.00 0.00 0.00 60 1014.4
20260503193059 65 325 5.2 10.4 0.00 0.00 0.00 60 1014.4
20260503192553 65 304 5.2 10.4 0.00 0.00 0.00 61 1014.4
20260503192052 65 312 6.1 10.4 0.00 0.00 0.00 61 1014.4
20260503191601 64 320 3.5 8.7 0.00 0.00 0.00 61 1014.4
20260503191050 64 310 4.3 8.7 0.00 0.00 0.00 60 1014.5
20260503190549 63 267 2.6 7.8 0.00 0.00 0.00 60 1014.4
20260503190038 63 300 4.3 9.6 0.00 0.00 0.00 61 1014.4
20260503185535 63 275 2.6 9.6 0.00 0.00 0.00 62 1014.5
20260503185035 62 310 1.7 9.6 0.00 0.00 0.00 62 1014.5
20260503184538 62 304 3.5 9.6 0.00 0.00 0.00 63 1014.5
20260503184032 61 308 3.5 8.7 0.00 0.00 0.00 63 1014.5
20260503183532 61 343 1.7 8.7 0.00 0.00 0.00 63 1014.6
20260503183029 61 289 3.5 8.7 0.00 0.00 0.00 64 1014.6
20260503182527 60 289 1.7 7.8 0.00 0.00 0.00 64 1014.7
20260503182026 60 302 3.5 9.6 0.00 0.00 0.00 65 1014.7
20260503181525 60 358 0.0 9.6 0.00 0.00 0.00 65 1014.7
20260503181026 60 319 0.0 8.7 0.00 0.00 0.00 66 1014.8
20260503180523 60 274 2.6 7.0 0.00 0.00 0.00 67 1014.7
20260503180022 59 310 0.0 9.6 0.00 0.00 0.00 67 1014.7
20260503175514 59 296 4.3 9.6 0.00 0.00 0.00 68 1014.7
20260503175013 59 313 0.9 7.8 0.00 0.00 0.00 68 1014.7
20260503174512 59 319 1.7 8.7 0.00 0.00 0.00 69 1014.7
20260503174012 58 302 4.3 8.7 0.00 0.00 0.00 70 1014.8
20260503173509 58 294 3.5 7.8 0.00 0.00 0.00 71 1014.8
20260503173009 58 318 0.9 6.1 0.00 0.00 0.00 72 1014.8
20260503172508 58 321 0.9 11.3 0.00 0.00 0.00 73 1014.8
20260503172006 58 310 0.9 11.3 0.00 0.00 0.00 73 1014.7
20260503171506 58 314 1.7 7.0 0.00 0.00 0.00 74 1014.7
20260503171004 58 340 0.9 6.1 0.00 0.00 0.00 74 1014.7
20260503170504 58 4 0.9 5.2 0.00 0.00 0.00 74 1014.6
20260503150530 55 7 0.9 3.5 0.00 0.00 0.00 82 1013.9
20260503131052 53 85 0.0 0.9 0.00 0.00 0.00 82 1012.9
20260503130552 53 78 0.0 0.9 0.00 0.00 0.00 82 1012.8
20260503120103 54 25 0.0 0.0 0.00 0.00 0.00 82 1012.3
20260503110546 54 26 0.0 0.0 0.00 0.00 0.00 82 1012.7
20260503081532 55 25 0.0 3.5 0.00 0.00 0.00 80 1013.1
20260503081032 55 29 0.9 3.5 0.00 0.00 0.00 80 1013.3
20260503080535 55 1 0.0 2.6 0.00 0.00 0.00 80 1013.3
20260503072529 55 25 0.0 1.7 0.00 0.00 0.00 81 1013.2
20260503072131 55 25 0.0 1.7 0.00 0.00 0.00 81 1013.3
20260503071528 55 25 0.0 1.7 0.00 0.00 0.00 81 1013.1
20260503071027 55 25 0.0 1.7 0.00 0.00 0.00 81 1013.1
20260503070526 55 25 0.0 0.9 0.00 0.00 0.00 81 1013.0
20260503055023 54 25 0.0 6.1 0.00 0.00 0.00 82 1012.7
20260503054529 54 52 0.0 3.5 0.00 0.00 0.00 82 1012.7
20260503054026 54 52 0.0 3.5 0.00 0.00 0.00 82 1012.7
20260503053523 54 36 0.0 1.7 0.00 0.00 0.00 82 1012.7
20260503053032 54 36 0.0 0.9 0.00 0.00 0.00 82 1012.7
20260503052526 54 36 0.0 0.0 0.00 0.00 0.00 82 1012.8
20260503052022 54 36 0.0 1.7 0.00 0.00 0.00 82 1012.7
20260503051522 53 36 0.0 2.6 0.00 0.00 0.00 82 1012.6
20260503051025 53 36 0.0 2.6 0.00 0.00 0.00 82 1012.5
20260503050522 53 36 0.0 0.0 0.00 0.00 0.00 82 1012.5
20260503050017 53 36 0.0 2.6 0.00 0.00 0.00 81 1012.4
20260503045515 53 36 0.0 2.6 0.00 0.00 0.00 81 1012.3
20260503045015 53 33 0.0 0.9 0.00 0.00 0.00 81 1012.3
20260503044514 54 33 0.0 0.9 0.00 0.00 0.00 81 1012.2
20260503044014 54 33 0.0 3.5 0.00 0.00 0.00 80 1012.2
20260503043514 54 32 0.0 3.5 0.00 0.00 0.00 80 1012.2
20260503043014 54 25 0.0 2.6 0.00 0.00 0.00 80 1012.2
20260503042514 54 85 0.0 1.7 0.00 0.00 0.00 80 1012.2
20260503042014 54 85 0.0 1.7 0.00 0.00 0.00 79 1012.3
20260503041515 54 85 0.0 0.9 0.00 0.00 0.00 79 1012.3
20260503041017 54 85 0.0 0.9 0.00 0.00 0.00 79 1012.3
20260503040513 55 85 0.0 0.9 0.00 0.00 0.00 79 1012.4
20260503040007 55 85 0.0 1.7 0.00 0.00 0.00 79 1012.3
20260503035508 55 85 0.0 1.7 0.00 0.00 0.00 79 1012.3
20260503035007 55 85 0.0 1.7 0.00 0.00 0.00 79 1012.2
20260503034520 55 85 0.0 1.7 0.00 0.00 0.00 78 1012.1
20260503034010 55 85 0.0 0.9 0.00 0.00 0.00 78 1012.2
20260503033506 55 85 0.0 1.7 0.00 0.00 0.00 78 1012.1
20260503033007 56 85 0.0 1.7 0.00 0.00 0.00 78 1012.1
20260503032505 56 360 0.0 0.0 0.00 0.00 0.00 78 1012.1
20260503032005 56 360 0.0 0.0 0.00 0.00 0.00 78 1012.1
20260503031505 56 360 0.0 0.0 0.00 0.00 0.00 78 1012.2
20260503031005 56 360 0.0 0.9 0.00 0.00 0.00 78 1012.1
20260503030505 56 360 0.0 0.9 0.00 0.00 0.00 78 1011.9
20260503030053 56 22 0.0 1.7 0.00 0.00 0.00 78 1011.8
20260503025548 56 22 0.0 3.5 0.00 0.00 0.00 78 1011.7
20260503025048 56 306 0.0 3.5 0.00 0.00 0.00 77 1011.8
20260503024551 57 298 0.9 3.5 0.00 0.00 0.00 77 1011.7
20260503024050 57 327 0.9 5.2 0.00 0.00 0.00 76 1011.5
20260503023546 57 38 2.6 5.2 0.00 0.00 0.00 76 1011.4
20260503023046 57 301 1.7 8.7 0.00 0.00 0.00 76 1011.4
20260503022545 57 319 4.3 8.7 0.00 0.00 0.00 75 1011.4
20260503022044 58 331 3.5 7.8 0.00 0.00 0.00 74 1011.5
20260503021546 58 316 1.7 7.8 0.00 0.00 0.00 74 1011.5
20260503021044 58 301 2.6 11.3 0.00 0.00 0.00 73 1011.5
20260503020544 58 279 4.3 11.3 0.00 0.00 0.00 73 1011.5
20260503020041 58 314 3.5 8.7 0.00 0.00 0.00 72 1011.5
20260503015540 59 286 4.3 9.6 0.00 0.00 0.00 72 1011.5
20260503015037 59 321 3.5 8.7 0.00 0.00 0.00 72 1011.5
20260503014542 59 302 4.3 8.7 0.00 0.00 0.00 71 1011.6
20260503014040 59 303 4.3 8.7 0.00 0.00 0.00 71 1011.6
20260503013537 60 287 3.5 8.7 0.00 0.00 0.00 71 1011.5
20260503013038 60 308 3.5 9.6 0.00 0.00 0.00 70 1011.5
20260503012536 60 299 4.3 9.6 0.00 0.00 0.00 70 1011.5
20260503012038 60 278 2.6 9.6 0.00 0.00 0.00 70 1011.6
20260503011536 61 275 3.5 7.8 0.00 0.00 0.00 70 1011.6
20260503011036 61 303 1.7 7.8 0.00 0.00 0.00 70 1011.7
20260503010537 61 291 1.7 8.7 0.00 0.00 0.00 69 1011.7
20260503010025 61 312 4.3 8.7 0.00 0.00 0.00 69 1011.7
20260503005525 62 318 4.3 11.3 0.00 0.00 0.00 68 1011.8
20260503005024 62 306 3.5 11.3 0.00 0.00 0.00 68 1011.8
20260503004524 62 302 4.3 10.4 0.00 0.00 0.00 68 1011.9
20260503004027 62 324 4.3 10.4 0.00 0.00 0.00 68 1011.8
20260503003523 63 307 1.7 8.7 0.00 0.00 0.00 68 1011.9
20260503003023 63 285 3.5 8.7 0.00 0.00 0.00 68 1011.8
20260503002522 63 290 2.6 7.8 0.00 0.00 0.00 68 1011.8
20260503002022 63 284 2.6 8.7 0.00 0.00 0.00 68 1011.8
20260503001522 63 312 3.5 8.7 0.00 0.00 0.00 68 1011.7
20260503001020 63 314 2.6 8.7 0.00 0.00 0.00 68 1011.8
20260503000520 63 311 1.7 10.4 0.00 0.00 0.00 68 1011.8
20260503000014 64 282 4.3 10.4 0.00 0.00 0.00 68 1011.8
20260502235513 64 281 3.5 8.7 0.00 0.00 0.00 67 1011.7
20260502235014 64 313 3.5 8.7 0.00 0.00 0.00 67 1011.9
20260502234512 64 314 1.7 9.6 0.00 0.00 0.00 67 1011.9
20260502234012 64 318 6.1 10.4 0.00 0.00 0.00 67 1011.9
20260502233512 64 317 3.5 9.6 0.00 0.00 0.00 67 1011.8
20260502233011 65 294 1.7 9.6 0.00 0.00 0.00 67 1011.9
20260502232510 65 313 1.7 9.6 0.00 0.00 0.00 67 1012.0
20260502232014 65 299 5.2 12.2 0.00 0.00 0.00 66 1012.1
20260502231515 65 291 6.1 12.2 0.00 0.00 0.00 67 1012.2
20260502231010 65 306 4.3 11.3 0.00 0.00 0.00 66 1012.2
20260502230508 65 287 4.3 9.6 0.00 0.00 0.00 67 1012.3
20260502230052 65 290 4.3 9.6 0.00 0.00 0.00 66 1012.4
20260502225552 66 296 3.5 7.8 0.00 0.00 0.00 66 1012.5